Flag for Brazil Weather past 2 weeks in Florianópolis, Santa Catarina, Brazil

Now
68 °F

Partly cloudy.


Feels Like: 68 °F
Forecast: 65 / 76 °F
Wind: 20 mph from Southwest

Location: Florianopolis Aeroporto

Current Time: May 28, 2015 at 5:13:41 PM

Latest Report: May 28, 2015 at 5:00 PM


Visibility: N/A

Pressure: 29.86 "Hg

Humidity: 73%

Dew point: 59 °F

Location of FlorianópolisLocation

Historic Weather in Florianópolis — Graph

°F

Florianópolis temperature yesterday

Maximum temperature yesterday: 70 °F (at 9:00 AM)
Minimum temperature yesterday: 68 °F (at 12:00 AM)
Average temperature yesterday: 69 °F

Past Weeks' High & Low Weather Summary

 TemperatureHumidityPressure
High79 °F (May 23, 1:00 PM)94% (May 15, 12:00 AM)30.30 "Hg (May 15, 12:00 AM)
Low64 °F (May 14, 12:00 AM)54% (May 28, 2:00 PM)29.71 "Hg (May 28, 4:00 AM)
Average70 °F86%30.11 "Hg
* Reported May 13 4:00 PM — May 28 4:00 PM, Florianópolis, Weather by CustomWeather, © 2015

Note: Actual official high and low records may vary slightly from our data, if they occured in-between our weather recording intervals... More about our weather records

Advertising

Florianópolis weather history for previous 24 hours

 ConditionsComfort  
Time TempWeatherWind HumidityBarometerVisibility
4:00 PM
Thu, May 28
72 °FBroken clouds.15 mph61%29.83 "HgN/A
3:00 PM73 °FScattered clouds.3 mph61%29.80 "HgN/A
2:00 PM75 °FScattered clouds.7 mph54%29.77 "HgN/A
1:00 PM73 °FScattered clouds.6 mph57%29.77 "HgN/A
12:00 PM72 °FScattered clouds.6 mph65%29.77 "HgN/A
11:00 AM70 °FSunny.7 mph64%29.77 "Hg10 mi
10:00 AM70 °FSunny.7 mph64%29.77 "Hg10 mi
9:00 AM70 °FPartly sunny.15 mph64%29.77 "HgN/A
8:00 AM72 °FPartly sunny.17 mph65%29.74 "HgN/A
7:00 AM72 °FBroken clouds.13 mph73%29.74 "HgN/A
6:00 AM70 °FPartly sunny.10 mph83%29.71 "HgN/A
5:00 AM70 °FPassing clouds.5 mph88%29.71 "HgN/A
4:00 AM70 °FPassing clouds.7 mph88%29.71 "HgN/A
3:00 AM70 °FPassing clouds.7 mph88%29.74 "HgN/A
2:00 AM70 °FPassing clouds.6 mph94%29.77 "HgN/A
1:00 AM70 °FPassing clouds.6 mph94%29.77 "HgN/A
12:00 AM70 °FPassing clouds.7 mph94%29.77 "HgN/A
11:00 PM
Wed, May 27
70 °FPassing clouds.5 mph94%29.80 "HgN/A
10:00 PM70 °FPassing clouds.5 mph94%29.80 "HgN/A
9:00 PM70 °FPassing clouds.6 mph94%29.83 "HgN/A
8:00 PM70 °FFog.6 mph94%29.83 "Hg3 mi
7:00 PM70 °FFog.2 mph88%29.80 "Hg3 mi
6:00 PM70 °FScattered showers. Passing clouds.No wind88%29.80 "Hg3 mi
5:00 PM70 °FLight rain. Partly cloudy.3 mph88%29.83 "Hg3 mi
Weather by CustomWeather, © 2015

See weather overviewHow to use our weather pages